This is the latest recevied weather packets stored in our database for station/object WC4PEM-6. If no packets are shown the sender has not sent any weather packets the latest 10 day(s).
| Time | Temp. | Humidity | Pressure | Rain* | Wind** | Luminosity | Snow |
|---|---|---|---|---|---|---|---|
| 1777656916 | 31.11° C | 48% | 1011.3 hPa | 0 mm | - | - | - |
| 1777656791 | 31.67° C | 47% | 1011.3 hPa | 0 mm | - | - | - |
| 1777656616 | 31.67° C | 47% | 1011.3 hPa | 0 mm | - | - | - |
| 1777656316 | 31.67° C | 48% | 1011.2 hPa | 0 mm | - | - | - |
| 1777656016 | 31.67° C | 47% | 1011.3 hPa | 0 mm | - | - | - |
| 1777655716 | 31.67° C | 47% | 1011.4 hPa | 0 mm | - | - | - |
| 1777655416 | 31.67° C | 47% | 1011.5 hPa | 0 mm | - | - | - |
| 1777655116 | 31.11° C | 49% | 1011.6 hPa | 0 mm | - | - | - |
| 1777654816 | 31.11° C | 49% | 1011.6 hPa | 0 mm | - | - | - |
| 1777654516 | 31.11° C | 50% | 1011.5 hPa | 0 mm | - | - | - |
| 1777654425 | 30.56° C | 51% | 1011.5 hPa | 0 mm | - | - | - |
| 1777654216 | 30.56° C | 51% | 1011.5 hPa | 0 mm | - | - | - |
| 1777654125 | 30° C | 52% | 1011.5 hPa | 0 mm | - | - | - |
| 1777653916 | 30° C | 52% | 1011.5 hPa | 0 mm | - | - | - |
| 1777653704 | 30° C | 54% | 1011.5 hPa | 0 mm | - | - | - |
| 1777653616 | 30° C | 54% | 1011.5 hPa | 0 mm | - | - | - |
| 1777653466 | 30.56° C | 53% | 1011.7 hPa | 0 mm | - | - | - |
| 1777653316 | 30.56° C | 53% | 1011.7 hPa | 0 mm | - | - | - |
| 1777653016 | 31.11° C | 52% | 1012 hPa | 0 mm | - | - | - |
| 1777652716 | 31.11° C | 54% | 1012 hPa | 0 mm | - | - | - |
| 1777652491 | 31.11° C | 53% | 1011.9 hPa | 0 mm | - | - | - |
| 1777652416 | 31.11° C | 53% | 1011.9 hPa | 0 mm | - | - | - |
| 1777652116 | 30.56° C | 52% | 1012 hPa | 0 mm | - | - | - |
| 1777651895 | 30.56° C | 52% | 1012.1 hPa | 0 mm | - | - | - |
| 1777651816 | 30.56° C | 52% | 1012.1 hPa | 0 mm | - | - | - |
* Rain latest hour (hover to see other rain measurements)
** Current wind speed in m/s (hover to see current wind gust speed)